[[{"header":{"parameterUnit":"m.s-1","parameterCategory":1,"la1":30.2991,"la2":30.254,"lo1":-89.0895,"lo2":-89.0444,"dy":0.0017,"dx":0.0017,"nx":28,"ny":28,"refTime":"2024-11-29T03:00:00:Z","depth":0,"parameterNumber":2,"parameterNumberName":"U-component_of_WINDS"},"data":[0,0,0,0,0,0,0,0,0,0,0,0,0,0,0,0,0,0,0,0,0,0,0,0,0,0,0,0,0,0,0,0,0,0,0,0,0,0,0,0,0,0,0,0,0,0,0,0,0,0,0,0,0,0,0,0,0,0,-3.666,-3.6661,0,-3.669,-3.669,-3.6691,-3.6592,-3.6589,-3.6586,-3.6583,-3.6617,-3.6621,-3.6624,0,0,0,0,0,0,0,0,0,0,0,0,0,-3.6523,-3.6526,-3.666,-3.6661,-3.6661,-3.669,-3.669,-3.6691,-3.6592,-3.6588,-3.6585,-3.6581,-3.6616,-3.662,-3.6625,0,0,0,0,0,0,0,0,0,0,0,0,0,-3.6571,-3.6527,-3.666,-3.6615,-3.6611,-3.669,-3.669,-3.6691,-3.6593,-3.6588,-3.6584,-3.658,-3.6614,-3.662,-3.6625,-3.675,0,0,-3.6642,-3.6645,0,0,0,0,0,0,0,0,-3.6568,-3.6576,-3.6621,-3.6618,-3.6614,-3.6632,-3.6654,-3.6711,-3.6594,-3.66,-3.6583,-3.6577,-3.6626,-3.663,-3.6646,-3.6751,-3.6753,-3.6643,-3.6646,-3.6649,-3.665,0,0,0,0,0,0,0,-3.6565,-3.6574,-3.6672,-3.6622,-3.6618,-3.6595,-3.6597,-3.6664,-3.6638,-3.6599,-3.6592,-3.6597,-3.6623,-3.6641,-3.6646,-3.6753,-3.6643,-3.6648,-3.6651,-3.6653,-3.6965,-3.697,0,0,0,0,0,0,-3.6567,-3.6572,-3.6671,-3.6673,-3.6579,-3.6601,-3.6603,-3.6631,-3.6637,-3.6633,-3.66,-3.6592,-3.6634,-3.664,-3.6647,-3.6795,-3.6649,-3.6654,-3.6657,-3.696,-3.6966,-3.6971,0,0,0,0,0,0,-3.6564,-3.6577,-3.667,-3.662,-3.663,-3.6608,-3.6641,-3.6634,-3.6651,-3.6638,-3.6633,-3.6623,-3.663,-3.6639,-3.6725,-3.6795,-3.6656,-3.6661,-3.6954,-3.6962,-3.6969,-3.7091,0,0,0,0,0,0,-3.6561,-3.6576,-3.6622,-3.6622,-3.6633,-3.6747,-3.6645,-3.6638,-3.6661,-3.665,-3.6658,-3.6655,-3.6627,-3.6717,-3.6731,-3.68,-3.6666,-3.6948,-3.6958,-3.6966,-3.7081,-3.7102,-3.7119,0,0,0,0,0,-3.6556,-3.6656,-3.6625,-3.6637,-3.669,-3.6751,-3.6757,-3.6723,-3.6667,-3.6714,-3.6705,-3.6655,-3.6784,-3.6727,-3.6741,-3.6813,-3.6943,-3.6955,-3.6966,-3.7072,-3.7097,-3.7119,0,0,0,0,0,0,-3.6665,-3.6655,-3.6621,-3.6723,-3.6738,-3.6734,-3.6792,-3.675,-3.6783,-3.6772,-3.6728,-3.6731,-3.6826,-3.6827,-3.6764,-3.6935,-3.6855,-3.6869,-3.6931,-3.6955,-3.6974,-3.6972,-3.667,0,0,0,0,0,-3.6701,-3.675,-3.6738,-3.683,-3.6839,-3.6815,-3.684,-3.6811,-3.6826,-3.6833,-3.683,-3.6848,-3.6893,-3.6923,-3.6964,-3.708,-3.7082,-3.7136,-3.7156,-3.7172,-3.7186,-3.725,-3.7275,-3.7008,-3.7008,-3.7007,0,0,-3.6776,-3.6776,-3.681,-3.6852,-3.686,-3.6914,-3.6821,-3.688,-3.692,-3.6842,-3.6924,-3.6923,-3.694,-3.7042,-3.7087,-3.7047,-3.7259,-3.7186,-3.7199,-3.7204,-3.7264,-3.7289,-3.7312,-3.7015,-3.7014,-3.7013,0,0,-3.694,-3.6944,-3.7022,-3.7032,-3.7047,-3.703,-3.7049,-3.7051,-3.7047,-3.7128,-3.7071,-3.7118,-3.7195,-3.7211,-3.7229,-3.74,-3.7356,-3.7414,-3.7517,-3.758,-3.7601,-3.7619,-3.7683,-3.7706,-3.7428,-3.7428,-3.7428,0,-3.7032,-3.7108,-3.7067,-3.7131,-3.7153,-3.7083,-3.7163,-3.7176,-3.7203,-3.722,-3.7174,-3.7271,-3.7277,-3.7384,-3.7426,-3.7441,-3.7464,-3.7414,-3.7601,-3.7619,-3.7636,-3.7696,-3.772,-3.7435,-3.7434,-3.7433,-3.7433,0,-3.7222,-3.7276,-3.7337,-3.7365,-3.7393,-3.7464,-3.7436,-3.7469,-3.7439,-3.7428,-3.7513,-3.7518,-3.7559,-3.7581,-3.7552,-3.7685,-3.7659,-3.7608,-3.7526,-3.7669,-3.7725,-3.7748,-3.7445,-3.7443,-3.7441,-3.7439,0,0,-3.7456,-3.746,-3.7484,-3.7496,-3.7507,-3.7549,-3.7619,-3.7658,-3.7689,-3.771,-3.7769,-3.7837,-3.779,-3.781,-3.7782,-3.7837,-3.7976,-3.7779,-3.7779,-3.7818,-3.8125,-3.8166,-3.8193,-3.7946,-3.795,-3.7953,-3.8125,0,-3.7619,-3.7737,-3.7703,-3.7822,-3.7873,-3.7808,-3.7869,-3.7884,-3.7875,-3.7918,-3.7909,-3.7959,-3.7891,-3.7904,-3.7955,-3.7949,-3.8038,-3.7935,-3.8003,-3.8006,-3.8003,-3.8222,-3.8264,-3.8426,-3.8146,-3.815,-3.8152,0,-3.7825,-3.7855,-3.7979,-3.7983,-3.8003,-3.8058,-3.8093,-3.8134,-3.815,-3.814,-3.8164,-3.8125,-3.8196,-3.8113,-3.8211,-3.8142,-3.8168,-3.8169,-3.8174,-3.8181,-3.8089,-3.8237,-3.8476,-3.8501,-3.8186,-3.8183,-3.8181,0,-3.7987,-3.8058,-3.8141,-3.8154,-3.816,-3.8201,-3.8206,-3.8217,-3.8244,-3.8274,-3.8291,-3.833,-3.8352,-3.8384,-3.8358,-3.8299,-3.8461,-3.8375,-3.8457,-3.8459,-3.8496,-3.8495,-3.8745,-3.8509,-3.8509,-3.8508,-3.8508,0,-3.8175,-3.8254,-3.8214,-3.8266,-3.8354,-3.8314,-3.8403,-3.84,-3.8411,-3.8463,-3.8409,-3.8459,-3.842,-3.8468,-3.8448,-3.8534,-3.8544,-3.8539,-3.8534,-3.8546,-3.8547,-3.8564,-3.8553,-3.8514,-3.8513,-3.8512,-3.8511,0,-3.8371,-3.8347,-3.8435,-3.8434,-3.8435,-3.85,-3.85,-3.8549,-3.8537,-3.8603,-3.8617,-3.8598,-3.8651,-3.8628,-3.8684,-3.867,-3.8782,-3.876,-3.8776,-3.8772,-3.8856,-3.885,-3.9128,-3.9164,-3.8903,-3.8905,-3.8907,0,-3.8493,-3.8552,-3.8558,-3.8588,-3.8596,-3.8646,-3.8673,-3.8636,-3.8667,-3.8691,-3.8738,-3.8786,-3.8823,-3.8911,-3.8904,-3.8947,-3.8928,-3.9022,-3.8934,-3.8945,-3.8932,-3.893,-3.8937,-3.9041,-3.9044,-3.9046,-3.9048,0,-3.8713,-3.8699,-3.8739,-3.8776,-3.8809,-3.8837,-3.886,-3.8888,-3.8853,-3.889,-3.8944,-3.8972,-3.903,-3.908,-3.9118,-3.9125,-3.9083,-3.9076,-3.9098,-3.9112,-3.912,-3.912,-3.8827,-3.907,-3.9068,-3.9066,-3.9065,-3.9064,-3.8878,-3.8928,-3.8941,-3.8988,-3.9001,-3.9024,-3.9071,-3.9064,-3.9108,-3.9151,-3.9127,-3.919,-3.9207,-3.9254,-3.9267,-3.9317,-3.928,-3.9311,-3.9319,-3.9328,-3.934,-3.911,-3.9323,-3.9323,-3.9322,-3.9321,-3.9321,0,-3.9097,-3.9102,-3.9146,-3.918,-3.9218,-3.9172,-3.9196,-3.9231,-3.9287,-3.9305,-3.9342,-3.9405,-3.9453,-3.945,-3.9495,-3.9536,-3.9518,-3.955,-3.9547,-3.955,-3.9369,-3.9347,-3.9564,-3.9564,-3.9564,-3.9564,-3.9563,-3.9563,-3.9216,-3.9301,-3.9288,-3.9379,-3.9383,-3.9444,-3.9462,-3.9484,-3.9498,-3.9571,-3.961,-3.9607,-3.9617,-3.9663,-3.9706,-3.9704,-3.9724,-3.9764,-3.9755,-3.9587,-3.9563,-3.954,-3.9519,-3.9768,-3.9768,-3.9932,-3.9934,-3.9935]},{"header":{"parameterUnit":"m.s-1","parameterCategory":1,"la1":30.2991,"la2":30.254,"lo1":-89.0895,"lo2":-89.0444,"dy":0.0017,"dx":0.0017,"nx":28,"ny":28,"refTime":"2024-11-29T03:00:00:Z","depth":0,"parameterNumber":3,"parameterNumberName":"V-component_of_WINDS"},"data":[0,0,0,0,0,0,0,0,0,0,0,0,0,0,0,0,0,0,0,0,0,0,0,0,0,0,0,0,0,0,0,0,0,0,0,0,0,0,0,0,0,0,0,0,0,0,0,0,0,0,0,0,0,0,0,0,0,0,-1.7974,-1.7974,0,-1.801,-1.8011,-1.8011,-1.7997,-1.7996,-1.7995,-1.7994,-1.803,-1.8032,-1.8034,0,0,0,0,0,0,0,0,0,0,0,0,0,-1.7891,-1.7892,-1.7974,-1.7975,-1.7975,-1.801,-1.8011,-1.8011,-1.7997,-1.7996,-1.7995,-1.7994,-1.803,-1.8032,-1.8034,0,0,0,0,0,0,0,0,0,0,0,0,0,-1.7927,-1.7893,-1.7974,-1.7972,-1.7972,-1.801,-1.8011,-1.8011,-1.7997,-1.7996,-1.7995,-1.7993,-1.8029,-1.8032,-1.8034,-1.8076,0,0,-1.8042,-1.8044,0,0,0,0,0,0,0,0,-1.7925,-1.793,-1.7972,-1.7972,-1.7973,-1.7998,-1.7995,-1.8033,-1.7997,-1.7988,-1.7994,-1.7993,-1.8021,-1.8024,-1.8033,-1.8078,-1.8079,-1.8043,-1.8044,-1.8045,-1.8046,0,0,0,0,0,0,0,-1.7923,-1.7928,-1.7988,-1.7973,-1.7973,-1.7969,-1.7973,-1.8002,-1.8011,-1.7988,-1.7987,-1.7992,-1.802,-1.8031,-1.8034,-1.808,-1.8043,-1.8045,-1.8046,-1.8048,-1.8159,-1.816,0,0,0,0,0,0,-1.792,-1.7926,-1.7987,-1.7989,-1.7945,-1.7971,-1.7976,-1.7991,-1.801,-1.8012,-1.7993,-1.7991,-1.8027,-1.8031,-1.8035,-1.8085,-1.8045,-1.8048,-1.8049,-1.8158,-1.8159,-1.8161,0,0,0,0,0,0,-1.7918,-1.7926,-1.7986,-1.7958,-1.7965,-1.7974,-1.7992,-1.7992,-1.8003,-1.8014,-1.8015,-1.8002,-1.8026,-1.8032,-1.8066,-1.8086,-1.8049,-1.8051,-1.8156,-1.8158,-1.816,-1.8185,0,0,0,0,0,0,-1.7916,-1.7925,-1.7941,-1.7958,-1.7967,-1.8016,-1.7993,-1.7994,-1.8007,-1.8005,-1.8023,-1.8024,-1.8026,-1.8062,-1.8068,-1.8089,-1.8053,-1.8154,-1.8157,-1.8159,-1.8182,-1.8188,-1.8192,0,0,0,0,0,-1.7913,-1.7947,-1.7942,-1.795,-1.7987,-1.8017,-1.8022,-1.8023,-1.8009,-1.8025,-1.8032,-1.8024,-1.8083,-1.8066,-1.8073,-1.8094,-1.8153,-1.8156,-1.8159,-1.818,-1.8187,-1.8192,0,0,0,0,0,0,-1.7932,-1.7949,-1.7944,-1.7985,-1.8,-1.8015,-1.8036,-1.803,-1.8049,-1.8046,-1.8046,-1.805,-1.8086,-1.8093,-1.8074,-1.8135,-1.8116,-1.812,-1.8129,-1.8135,-1.814,-1.8138,-1.8056,0,0,0,0,0,-1.7941,-1.7965,-1.7978,-1.8012,-1.802,-1.8026,-1.804,-1.8039,-1.8054,-1.8061,-1.807,-1.8085,-1.8107,-1.8122,-1.8142,-1.8183,-1.8187,-1.8201,-1.8206,-1.821,-1.8215,-1.8236,-1.8243,-1.8171,-1.8171,-1.8171,0,0,-1.796,-1.7972,-1.7987,-1.8016,-1.8028,-1.8052,-1.8032,-1.8058,-1.8076,-1.8065,-1.8098,-1.8105,-1.8122,-1.8159,-1.8176,-1.8167,-1.8235,-1.8214,-1.8217,-1.8219,-1.824,-1.8247,-1.8253,-1.8173,-1.8173,-1.8173,0,0,-1.8006,-1.8017,-1.8047,-1.8059,-1.8077,-1.8081,-1.8088,-1.8104,-1.8109,-1.8142,-1.8134,-1.8154,-1.8192,-1.8204,-1.8215,-1.8265,-1.8258,-1.8272,-1.8298,-1.8319,-1.8325,-1.833,-1.8347,-1.8354,-1.8276,-1.8276,-1.8276,0,-1.8027,-1.8063,-1.8063,-1.809,-1.8103,-1.8094,-1.8124,-1.8135,-1.8159,-1.8168,-1.8157,-1.8203,-1.8214,-1.8254,-1.8266,-1.8276,-1.8283,-1.827,-1.8324,-1.8329,-1.8334,-1.835,-1.8357,-1.8278,-1.8277,-1.8277,-1.8277,0,-1.8087,-1.8112,-1.8134,-1.8158,-1.8173,-1.8201,-1.8205,-1.822,-1.8218,-1.8223,-1.8256,-1.8269,-1.8292,-1.8301,-1.8299,-1.8341,-1.8334,-1.8324,-1.8304,-1.8342,-1.8358,-1.8364,-1.828,-1.8279,-1.8279,-1.8278,0,0,-1.8147,-1.817,-1.8178,-1.8188,-1.8207,-1.8226,-1.8253,-1.8276,-1.8289,-1.8305,-1.8328,-1.836,-1.835,-1.8362,-1.8361,-1.838,-1.8419,-1.8367,-1.8367,-1.8376,-1.8465,-1.8474,-1.8481,-1.8414,-1.8415,-1.8416,-1.8464,0,-1.8195,-1.8244,-1.8244,-1.8289,-1.8312,-1.8303,-1.8327,-1.834,-1.8345,-1.8365,-1.837,-1.8393,-1.8378,-1.8386,-1.8404,-1.841,-1.8437,-1.8407,-1.8435,-1.8436,-1.8431,-1.8489,-1.8498,-1.8543,-1.847,-1.8471,-1.8472,0,-1.8257,-1.8276,-1.8323,-1.8338,-1.8347,-1.8369,-1.8389,-1.8408,-1.8423,-1.8426,-1.844,-1.8436,-1.8463,-1.8442,-1.8479,-1.8459,-1.847,-1.8475,-1.8477,-1.848,-1.8457,-1.8494,-1.8557,-1.8564,-1.8482,-1.8481,-1.848,0,-1.8296,-1.8333,-1.8366,-1.8375,-1.8393,-1.8408,-1.8417,-1.843,-1.8444,-1.8461,-1.847,-1.849,-1.8502,-1.8517,-1.8519,-1.8503,-1.8556,-1.8535,-1.8559,-1.8559,-1.8571,-1.857,-1.8637,-1.8578,-1.8577,-1.8577,-1.8577,0,-1.835,-1.8379,-1.8384,-1.8404,-1.8436,-1.8436,-1.8467,-1.8474,-1.8486,-1.8507,-1.85,-1.852,-1.8521,-1.8541,-1.8542,-1.8572,-1.8578,-1.858,-1.858,-1.8581,-1.858,-1.8588,-1.8585,-1.8579,-1.8579,-1.8578,-1.8578,0,-1.8399,-1.8404,-1.8439,-1.8453,-1.8457,-1.848,-1.8492,-1.8511,-1.8515,-1.8542,-1.8548,-1.8554,-1.8577,-1.858,-1.8607,-1.8608,-1.8645,-1.8641,-1.864,-1.8639,-1.8662,-1.866,-1.8737,-1.8747,-1.8681,-1.8682,-1.8682,0,-1.8433,-1.8455,-1.8472,-1.8486,-1.8495,-1.8517,-1.8531,-1.8531,-1.8545,-1.8564,-1.858,-1.8603,-1.8621,-1.8658,-1.8665,-1.8685,-1.8682,-1.8708,-1.8685,-1.8685,-1.8683,-1.8681,-1.8683,-1.8712,-1.8713,-1.8713,-1.8714,0,-1.8493,-1.8494,-1.8514,-1.8535,-1.8551,-1.8568,-1.8583,-1.8594,-1.8597,-1.8613,-1.8636,-1.865,-1.8678,-1.87,-1.872,-1.8728,-1.8721,-1.8721,-1.8727,-1.8728,-1.8727,-1.8728,-1.8652,-1.8719,-1.8719,-1.8718,-1.8718,-1.8718,-1.8536,-1.8555,-1.857,-1.8592,-1.8604,-1.8618,-1.8636,-1.8643,-1.8663,-1.8685,-1.8684,-1.871,-1.8724,-1.875,-1.8759,-1.8779,-1.877,-1.878,-1.8782,-1.8785,-1.8787,-1.8723,-1.8782,-1.8782,-1.8782,-1.8782,-1.8782,0,-1.8595,-1.8604,-1.8625,-1.8647,-1.8664,-1.8657,-1.8673,-1.8688,-1.8711,-1.8724,-1.8742,-1.8769,-1.879,-1.8799,-1.8819,-1.8834,-1.8831,-1.8839,-1.8838,-1.884,-1.8793,-1.8786,-1.8841,-1.8841,-1.8841,-1.8841,-1.8841,-1.8841,-1.8629,-1.8661,-1.8663,-1.87,-1.8709,-1.8735,-1.8744,-1.8757,-1.8768,-1.8799,-1.8816,-1.8822,-1.8833,-1.8854,-1.8873,-1.8875,-1.8883,-1.8892,-1.8893,-1.8849,-1.8843,-1.8838,-1.8831,-1.8894,-1.8894,-1.8938,-1.8938,-1.8939]}]]